RH
32 20 14 13 12 13 14 15 15 15 15 14 14 14 14 14 13 13 14 14 13 12 12 12 13 14 14 21 24 26 25 24 24 25 26 26 25 25 24 23 23 22 22 22 22 21 20
32 29 22 16 14 14 14 15 16 17 16 16 16 15 14 14 14 14 14 14 13 12 12 11 12 13 13 14 22 26 26 25 25 24 23 24 25 25 24 25 25 25 24 24 24 22 22
36 32 29 22 17 16 16 16 17 18 18 18 17 17 16 15 14 13 14 14 13 12 11 11 12 13 13 14 14 19 22 23 25 26 25 25 24 22 22 24 25 25 25 25 25 24 24
43 38 32 29 24 19 17 17 17 17 18 19 18 17 17 16 15 14 14 13 13 12 11 11 12 13 13 14 15 16 19 22 25 24 23 21 21 24 27 27 26 25 27 27 26 25 25
37 43 44 33 27 25 21 20 18 18 18 18 18 18 17 16 15 14 13 13 13 12 11 11 12 13 14 16 16 16 20 20 24 26 27 26 22 21 25 30 34 34 31 30 29 28 27
43 37 37 44 41 27 25 23 22 20 19 18 17 17 16 16 15 14 13 13 12 11 11 12 13 13 14 15 16 18 21 20 20 23 25 25 24 25 26 30 36 31 33 34 32 30 29
68 39 33 32 36 41 32 26 24 22 21 19 18 17 16 15 15 14 14 13 13 12 12 11 12 14 16 18 19 20 22 22 21 21 22 22 23 23 23 26 27 30 32 32 33 33 33
83 72 42 30 31 32 30 30 24 21 19 19 19 17 16 15 15 15 15 14 15 17 14 11 12 12 13 14 15 16 17 19 20 19 20 22 24 20 21 24 27 29 31 32 32 33 33
96 86 73 46 31 30 31 28 25 24 22 20 20 18 17 16 16 15 16 16 16 18 17 13 13 13 13 14 14 15 15 18 19 20 22 22 19 21 22 24 26 28 32 31 32 34 34
98 98 94 80 54 33 30 30 30 26 25 24 22 21 21 19 17 16 17 17 17 17 21 12 16 17 16 15 14 16 17 17 21 22 24 23 21 21 21 24 26 29 31 34 36 39 41
97 99 99 96 88 61 45 37 35 34 34 31 28 25 24 23 23 21 21 20 20 16 23 13 20 16 18 18 17 19 20 21 22 24 26 24 25 25 25 24 26 29 31 36 39 45 43
97 98 99 97 98 85 72 67 64 55 48 40 36 33 31 28 25 24 24 24 22 24 26 16 21 20 18 18 21 22 23 24 25 27 28 28 27 26 26 27 29 31 33 39 45 46 55
97 97 97 99 98 97 86 78 75 71 65 55 44 43 38 33 31 28 27 31 32 35 17 17 24 23 22 21 22 25 26 27 29 34 31 30 30 29 28 31 32 32 35 48 51 56 47
96 98 97 97 97 98 99 95 98 87 81 72 56 49 47 42 37 36 37 39 35 23 22 24 26 25 25 23 22 28 30 30 29 29 33 36 32 31 30 30 33 36 36 45 47 48 44
96 97 97 96 98 98 98 99 99 96 88 82 72 58 54 49 46 45 47 55 37 29 21 27 28 29 29 27 27 29 31 30 26 27 29 36 32 30 30 30 32 37 41 38 43 47 55
91 95 97 97 97 98 98 98 98 98 95 89 78 70 59 60 56 58 59 50 41 30 27 28 25 25 29 32 30 32 33 26 25 26 25 28 32 33 33 32 34 34 35 42 47 49 51
79 94 97 98 97 98 98 98 96 92 99 98 85 78 67 67 67 68 64 60 52 37 34 34 33 32 30 32 32 34 30 25 25 27 28 30 32 38 35 36 35 36 39 38 42 48 52
48 94 98 98 98 98 97 98 98 98 98 96 93 87 74 73 80 74 67 62 54 50 43 42 41 41 38 36 38 37 33 29 29 31 34 34 41 46 37 37 37 38 38 37 46 44 50
39 86 97 98 99 98 97 97 97 97 97 98 98 98 98 95 82 75 74 69 66 61 56 52 50 47 43 43 45 42 38 38 37 37 41 40 44 52 49 49 46 45 41 39 41 45 45
51 57 96 98 98 97 98 98 98 97 96 98 98 98 97 98 97 94 89 83 78 76 73 67 62 62 58 54 48 47 48 50 49 49 50 50 49 45 36 39 45 48 49 53 56 59 51
61 51 92 98 98 99 98 98 98 98 98 97 98 98 96 97 97 98 99 98 98 95 92 88 88 86 83 78 70 68 66 63 60 59 60 65 63 60 52 56 61 62 62 64 69 63 70
69 58 87 95 98 98 99 98 99 98 97 95 97 98 99 98 98 98 98 98 98 97 98 98 99 98 94 92 91 88 86 88 90 85 86 86 80 79 69 72 76 80 79 81 83 87 91
76 61 67 90 94 97 98 99 98 99 98 95 95 97 98 98 98 97 98 97 97 97 98 98 98 97 97 97 96 95 95 94 95 94 95 96 95 95 89 91 90 86 80 83 87 96 97
76 60 63 84 94 95 99 98 98 99 98 97 91 93 93 97 96 96 97 97 97 97 97 97 98 97 97 96 96 94 94 94 95 95 96 96 98 98 96 96 95 92 90 89 93 95 95
73 62 62 88 95 95 96 98 98 98 99 98 96 91 89 95 92 95 95 94 96 96 98 97 98 95 93 92 91 90 92 93 90 91 92 94 98 97 97 96 94 96 93 89 97 97 96
64 64 65 82 95 97 98 97 98 98 99 99 98 96 95 92 95 90 95 97 97 97 97 97 95 93 91 92 92 94 93 83 80 84 92 96 97 98 97 97 96 91 96 88 94 96 88
59 56 62 77 93 98 98 98 98 98 98 99 98 97 98 93 90 90 91 92 93 95 95 94 94 92 93 96 95 94 91 84 87 80 89 94 94 96 96 97 96 96 93 83 87 78 68
56 51 54 59 80 94 97 97 98 98 97 98 97 98 97 97 93 91 90 91 94 93 93 95 94 94 94 93 94 92 94 90 90 84 86 88 91 91 96 96 93 92 82 76 70 61 60
58 56 50 52 57 84 95 95 96 98 95 97 97 97 98 97 93 91 92 92 92 94 96 92 81 83 87 91 91 91 94 95 92 90 81 88 77 78 74 75 76 69 62 57 55 57 60